,,Stat6,,Stat2,,Stat8,,Stat9,,Stat10,,Wind1,,Wind1,
time,status,PA1M_AVG,status,PR1M_SUM,status,RH1M_AVG,status,SR1M_AVG,status,TA1M_AVG,status,W1dAve1m,status,W1sAve1m,
2007-11-26, 00:00:00,VALID,919.393,VALID,0,VALID,99.9201,VALID,-0.0509425,VALID,20.7964,VALID,92,VALID,0.303385,
2007-11-26, 00:01:00,VALID,919.417,VALID,0,VALID,99.9379,VALID,-0.0509425,VALID,20.8091,VALID,69,VALID,0.1625,
2007-11-26, 00:02:00,VALID,919.433,VALID,0,VALID,99.988,VALID,-0.0509425,VALID,20.8324,VALID,76,VALID,0.289244,
2007-11-26, 00:03:00,VALID,919.428,VALID,0,VALID,99.999,VALID,-0.0169808,VALID,20.8483,VALID,119,VALID,0.143532,
2007-11-26, 00:04:00,VALID,919.425,VALID,0,VALID,99.9822,VALID,-0.0169808,VALID,20.8616,VALID,105,VALID,0,
2007-11-26, 00:05:00,VALID,919.434,VALID,0,VALID,100,VALID,-0.0339617,VALID,20.8843,VALID,85,VALID,0,
2007-11-26, 00:06:00,VALID,919.424,VALID,0,VALID,99.9537,VALID,-0.0169808,VALID,20.9003,VALID,85,VALID,0,
2007-11-26, 00:07:00,VALID,919.414,VALID,0,VALID,99.7739,VALID,-0.0339617,VALID,20.8643,VALID,97,VALID,0.462271,
2007-11-26, 00:08:00,VALID,919.394,VALID,0,VALID,99.8362,VALID,-0.0509425,VALID,20.8486,VALID,85,VALID,0.2996,
2007-11-26, 00:09:00,VALID,919.394,VALID,0,VALID,99.9354,VALID,0,VALID,20.8446,VALID,85,VALID,0.402798,
2007-11-26, 00:10:00,VALID,919.37,VALID,0,VALID,99.8464,VALID,-0.0339617,VALID,20.8483,VALID,85,VALID,0.00617733,
2007-11-26, 00:11:00,VALID,919.367,VALID,0,VALID,99.7612,VALID,0,VALID,20.8319,VALID,73,VALID,0.789757,
2007-11-26, 00:12:00,VALID,919.365,VALID,0,VALID,99.7892,VALID,-0.0339617,VALID,20.8059,VALID,77,VALID,1.27253,
2007-11-26, 00:13:00,VALID,919.35,VALID,0,VALID,99.8998,VALID,-0.0509425,VALID,20.7962,VALID,69,VALID,1.02042,
2007-11-26, 00:14:00,VALID,919.325,VALID,0,VALID,99.8133,VALID,-0.0849042,VALID,20.7834,VALID,80,VALID,1.08416,
2007-11-26, 00:15:00,VALID,919.334,VALID,0,VALID,99.8591,VALID,-0.0679233,VALID,20.7799,VALID,79,VALID,1.09204,
2007-11-26, 00:16:00,VALID,919.315,VALID,0,VALID,99.8477,VALID,-0.0339617,VALID,20.7734,VALID,79,VALID,1.24163,
2007-11-26, 00:17:00,VALID,919.309,VALID,0,VALID,99.8006,VALID,-0.0849042,VALID,20.7572,VALID,76,VALID,1.48133,
2007-11-26, 00:18:00,VALID,919.292,VALID,0,VALID,99.7116,VALID,-0.0849042,VALID,20.7353,VALID,59,VALID,1.48899,
2007-11-26, 00:19:00,VALID,919.275,VALID,0,VALID,99.9252,VALID,-0.0849042,VALID,20.7155,VALID,77,VALID,1.2918,
2007-11-26, 00:20:00,VALID,919.278,VALID,0,VALID,99.9906,VALID,-0.0339617,VALID,20.702,VALID,60,VALID,0.539864,
2007-11-26, 00:21:00,VALID,919.267,VALID,0,VALID,100,VALID,-0.0509425,VALID,20.6923,VALID,74,VALID,1.00553,
2007-11-26, 00:22:00,VALID,919.27,VALID,0,VALID,100,VALID,-0.0339617,VALID,20.7053,VALID,82,VALID,1.04397,
2007-11-26, 00:23:00,VALID,919.257,VALID,0,VALID,100,VALID,-0.0339617,VALID,20.7118,VALID,73,VALID,0.940044,
2007-11-26, 00:24:00,VALID,919.256,VALID,0,VALID,100,VALID,-0.0169808,VALID,20.7083,VALID,76,VALID,1.0738,
2007-11-26, 00:25:00,VALID,919.238,VALID,0,VALID,100,VALID,-0.0169808,VALID,20.718,VALID,73,VALID,0.795759,
2007-11-26, 00:26:00,VALID,919.242,VALID,0,VALID,100,VALID,-0.0169808,VALID,20.728,VALID,82,VALID,1.05796,
2007-11-26, 00:27:00,VALID,919.234,VALID,0,VALID,99.9496,VALID,-0.0509425,VALID,20.7177,VALID,54,VALID,0.96439,
2007-11-26, 00:28:00,VALID,919.214,VALID,0,VALID,99.5959,VALID,-0.0509425,VALID,20.6663,VALID,64,VALID,1.80352,
2007-11-26, 00:29:00,VALID,919.211,VALID,0,VALID,99.7281,VALID,-0.0339617,VALID,20.6366,VALID,50,VALID,1.14444,
2007-11-26, 00:30:00,VALID,919.21,VALID,0,VALID,99.8706,VALID,-0.0339617,VALID,20.6239,VALID,80,VALID,1.3763,
2007-11-26, 00:31:00,VALID,919.205,VALID,0,VALID,99.9148,VALID,-0.0339617,VALID,20.6076,VALID,69,VALID,0.694741,
2007-11-26, 00:32:00,VALID,919.212,VALID,0,VALID,100,VALID,-0.0339617,VALID,20.6339,VALID,74,VALID,0.808677,
2007-11-26, 00:33:00,VALID,919.2,VALID,0,VALID,100,VALID,0,VALID,20.6496,VALID,69,VALID,0.983594,
2007-11-26, 00:34:00,VALID,919.2,VALID,0,VALID,100,VALID,-0.0509425,VALID,20.6663,VALID,65,VALID,0.636914,
2007-11-26, 00:35:00,VALID,919.187,VALID,0,VALID,100,VALID,0,VALID,20.7053,VALID,77,VALID,0.611979,
2007-11-26, 00:36:00,VALID,919.181,VALID,0,VALID,100,VALID,-0.0509425,VALID,20.7115,VALID,72,VALID,0.716747,
2007-11-26, 00:37:00,VALID,919.154,VALID,0,VALID,100,VALID,-0.0509425,VALID,20.6726,VALID,66,VALID,0.465693,
2007-11-26, 00:38:00,VALID,919.145,VALID,0,VALID,100,VALID,-0.0169808,VALID,20.6466,VALID,65,VALID,0.651811,
2007-11-26, 00:39:00,VALID,919.122,VALID,0,VALID,100,VALID,-0.0169808,VALID,20.6141,VALID,65,VALID,0.781613,
2007-11-26, 00:40:00,VALID,919.115,VALID,0,VALID,100,VALID,-0.0169808,VALID,20.5917,VALID,76,VALID,0.835227,
2007-11-26, 00:41:00,VALID,919.101,VALID,0,VALID,100,VALID,-0.0169808,VALID,20.5977,VALID,77,VALID,0.507457,
2007-11-26, 00:42:00,VALID,919.093,VALID,0,VALID,100,VALID,-0.0339617,VALID,20.6044,VALID,72,VALID,0.925509,
2007-11-26, 00:43:00,VALID,919.086,VALID,0,VALID,100,VALID,-0.0679233,VALID,20.5979,VALID,77,VALID,1.12481,
2007-11-26, 00:44:00,VALID,919.069,VALID,0,VALID,100,VALID,-0.0169808,VALID,20.6012,VALID,78,VALID,0.800868,
2007-11-26, 00:45:00,VALID,919.059,VALID,0,VALID,100,VALID,-0.0169808,VALID,20.5852,VALID,73,VALID,0.561928,
2007-11-26, 00:46:00,VALID,919.05,VALID,0,VALID,100,VALID,-0.0339617,VALID,20.543,VALID,73,VALID,0.515811,
2007-11-26, 00:47:00,VALID,919.03,VALID,0,VALID,100,VALID,-0.0509425,VALID,20.5492,VALID,73,VALID,0.463796,
2007-11-26, 00:48:00,VALID,919.013,VALID,0,VALID,100,VALID,-0.0679233,VALID,20.543,VALID,73,VALID,0.0648438,
2007-11-26, 00:49:00,VALID,919.01,VALID,0,VALID,100,VALID,-0.0339617,VALID,20.5657,VALID,77,VALID,0.134722,
2007-11-26, 00:50:00,VALID,919.016,VALID,0,VALID,100,VALID,0.0169808,VALID,20.6271,VALID,79,VALID,0.0307049,
2007-11-26, 00:51:00,VALID,919.015,VALID,0,VALID,100,VALID,-0.0169808,VALID,20.6493,VALID,79,VALID,0,
2007-11-26, 00:52:00,VALID,919.036,VALID,0,VALID,100,VALID,-0.0169808,VALID,20.6112,VALID,79,VALID,0,
2007-11-26, 00:53:00,VALID,919.041,VALID,0,VALID,100,VALID,-0.0339617,VALID,20.5817,VALID,64,VALID,0.206597,
2007-11-26, 00:54:00,VALID,919.043,VALID,0,VALID,100,VALID,-0.0169808,VALID,20.5525,VALID,38,VALID,0.313388,
2007-11-26, 00:55:00,VALID,919.049,VALID,0,VALID,100,VALID,-0.0339617,VALID,20.5263,VALID,32,VALID,0.00990854,
2007-11-26, 00:56:00,VALID,919.047,VALID,0,VALID,100,VALID,-0.0339617,VALID,20.5265,VALID,7,VALID,0.263626,
2007-11-26, 00:57:00,VALID,919.038,VALID,0,VALID,100,VALID,-0.0679233,VALID,20.5076,VALID,336,VALID,0.229403,
2007-11-26, 00:58:00,VALID,919.019,VALID,0,VALID,100,VALID,-0.0169808,VALID,20.4716,VALID,336,VALID,0,
2007-11-26, 00:59:00,VALID,919.019,VALID,0,VALID,100,VALID,-0.0169808,VALID,20.4641,VALID,336,VALID,0,
2007-11-26, 01:00:00,VALID,919.004,VALID,0,VALID,100,VALID,-0.0169808,VALID,20.4911,VALID,337,VALID,0,
2007-11-26, 01:01:00,VALID,918.973,VALID,0,VALID,100,VALID,0,VALID,20.5105,VALID,39,VALID,0.275436,
2007-11-26, 01:02:00,VALID,918.946,VALID,0,VALID,100,VALID,-0.0169808,VALID,20.5295,VALID,93,VALID,0.717035,
2007-11-26, 01:03:00,VALID,918.914,VALID,0,VALID,100,VALID,-0.0339617,VALID,20.542,VALID,89,VALID,0.706659,
2007-11-26, 01:04:00,VALID,918.907,VALID,0,VALID,100,VALID,-0.0169808,VALID,20.5325,VALID,77,VALID,0.473772,
2007-11-26, 01:05:00,VALID,918.877,VALID,0,VALID,100,VALID,-0.0679233,VALID,20.4941,VALID,79,VALID,0.797061,
2007-11-26, 01:06:00,VALID,918.861,VALID,0,VALID,100,VALID,-0.0679233,VALID,20.5103,VALID,95,VALID,0.758743,
2007-11-26, 01:07:00,VALID,918.831,VALID,0,VALID,100,VALID,-0.0339617,VALID,20.53,VALID,92,VALID,0.289244,
2007-11-26, 01:08:00,VALID,918.818,VALID,0,VALID,100,VALID,-0.0339617,VALID,20.546,VALID,87,VALID,0.247954,
2007-11-26, 01:09:00,VALID,918.798,VALID,0,VALID,100,VALID,-0.0169808,VALID,20.5325,VALID,79,VALID,0.0638672,
2007-11-26, 01:10:00,VALID,918.789,VALID,0,VALID,100,VALID,0.0169808,VALID,20.5227,VALID,100,VALID,0.340588,
2007-11-26, 01:11:00,VALID,918.784,VALID,0,VALID,100,VALID,0,VALID,20.4998,VALID,90,VALID,0.00390625,
2007-11-26, 01:12:00,VALID,918.762,VALID,0,VALID,100,VALID,-0.0679233,VALID,20.527,VALID,90,VALID,0,
2007-11-26, 01:13:00,VALID,918.766,VALID,0,VALID,100,VALID,-0.0849042,VALID,20.524,VALID,90,VALID,0.0814732,
2007-11-26, 01:14:00,VALID,918.765,VALID,0,VALID,100,VALID,-0.0849042,VALID,20.5235,VALID,90,VALID,0,
2007-11-26, 01:15:00,VALID,918.766,VALID,0,VALID,100,VALID,-0.0509425,VALID,20.5338,VALID,90,VALID,0,
2007-11-26, 01:16:00,VALID,918.764,VALID,0,VALID,100,VALID,-0.0679233,VALID,20.5438,VALID,87,VALID,0.296354,
2007-11-26, 01:17:00,VALID,918.769,VALID,0,VALID,100,VALID,-0.101885,VALID,20.5151,VALID,84,VALID,0.119606,
2007-11-26, 01:18:00,VALID,918.772,VALID,0,VALID,100,VALID,-0.101885,VALID,20.4656,VALID,83,VALID,0,
2007-11-26, 01:19:00,VALID,918.765,VALID,0,VALID,100,VALID,-0.101885,VALID,20.4729,VALID,84,VALID,0.000200321,
2007-11-26, 01:20:00,VALID,918.757,VALID,0,VALID,100,VALID,-0.101885,VALID,20.4821,VALID,97,VALID,0.105945,
2007-11-26, 01:21:00,VALID,918.767,VALID,0,VALID,100,VALID,-0.0679233,VALID,20.4654,VALID,81,VALID,0.703683,
2007-11-26, 01:22:00,VALID,918.768,VALID,0,VALID,100,VALID,-0.135847,VALID,20.434,VALID,67,VALID,0.912109,
2007-11-26, 01:23:00,VALID,918.768,VALID,0,VALID,100,VALID,-0.0849042,VALID,20.3883,VALID,67,VALID,0.648074,
2007-11-26, 01:24:00,VALID,918.773,VALID,0,VALID,100,VALID,-0.0849042,VALID,20.3526,VALID,67,VALID,0.69029,
2007-11-26, 01:25:00,VALID,918.774,VALID,0,VALID,100,VALID,-0.0679233,VALID,20.3807,VALID,68,VALID,0.607558,
2007-11-26, 01:26:00,VALID,918.784,VALID,0,VALID,100,VALID,-0.0509425,VALID,20.4005,VALID,68,VALID,0.539583,
2007-11-26, 01:27:00,VALID,918.785,VALID,0,VALID,100,VALID,-0.0849042,VALID,20.4299,VALID,68,VALID,0.308222,
2007-11-26, 01:28:00,VALID,918.789,VALID,0,VALID,100,VALID,-0.0679233,VALID,20.4362,VALID,68,VALID,0,
2007-11-26, 01:29:00,VALID,918.788,VALID,0,VALID,100,VALID,-0.0849042,VALID,20.4364,VALID,68,VALID,0,
2007-11-26, 01:30:00,VALID,918.787,VALID,0,VALID,100,VALID,-0.101885,VALID,20.4137,VALID,68,VALID,0,
2007-11-26, 01:31:00,VALID,918.78,VALID,0,VALID,100,VALID,-0.0679233,VALID,20.394,VALID,68,VALID,0,
2007-11-26, 01:32:00,VALID,918.76,VALID,0,VALID,100,VALID,-0.0509425,VALID,20.3907,VALID,68,VALID,0,
2007-11-26, 01:33:00,VALID,918.753,VALID,0,VALID,100,VALID,-0.0679233,VALID,20.4099,VALID,68,VALID,0,
2007-11-26, 01:34:00,VALID,918.737,VALID,0,VALID,100,VALID,-0.0339617,VALID,20.4456,VALID,68,VALID,0,
2007-11-26, 01:35:00,VALID,918.745,VALID,0,VALID,100,VALID,-0.0679233,VALID,20.4651,VALID,68,VALID,0.0804116,
2007-11-26, 01:36:00,VALID,918.729,VALID,0,VALID,100,VALID,-0.0339617,VALID,20.4554,VALID,72,VALID,0.674851,
2007-11-26, 01:37:00,VALID,918.706,VALID,0,VALID,100,VALID,-0.0679233,VALID,20.4621,VALID,85,VALID,0.37407,
2007-11-26, 01:38:00,VALID,918.696,VALID,0,VALID,100,VALID,-0.0679233,VALID,20.4654,VALID,345,VALID,0.362805,
2007-11-26, 01:39:00,VALID,918.704,VALID,0,VALID,100,VALID,-0.101885,VALID,20.4364,VALID,266,VALID,0.0479167,
2007-11-26, 01:40:00,VALID,918.69,VALID,0,VALID,100,VALID,-0.101885,VALID,20.4107,VALID,266,VALID,0.0131392,
2007-11-26, 01:41:00,VALID,918.686,VALID,0,VALID,100,VALID,-0.101885,VALID,20.3945,VALID,265,VALID,0.00230824,
2007-11-26, 01:42:00,VALID,918.658,VALID,0,VALID,100,VALID,0.0169808,VALID,20.4281,VALID,142,VALID,0.492914,
2007-11-26, 01:43:00,VALID,918.663,VALID,0,VALID,100,VALID,0.0339617,VALID,20.4411,VALID,109,VALID,0.050071,
2007-11-26, 01:44:00,VALID,918.655,VALID,0,VALID,100,VALID,0.0169808,VALID,20.4578,VALID,109,VALID,0,
2007-11-26, 01:45:00,VALID,918.639,VALID,0,VALID,100,VALID,0.0169808,VALID,20.4419,VALID,128,VALID,0.293241,
2007-11-26, 01:46:00,VALID,918.635,VALID,0,VALID,100,VALID,0.0509425,VALID,20.4284,VALID,141,VALID,0.558408,
2007-11-26, 01:47:00,VALID,918.631,VALID,0,VALID,100,VALID,0.0169808,VALID,20.3859,VALID,103,VALID,0.405869,
2007-11-26, 01:48:00,VALID,918.635,VALID,0,VALID,100,VALID,0.0339617,VALID,20.37,VALID,98,VALID,0,
2007-11-26, 01:49:00,VALID,918.629,VALID,0,VALID,100,VALID,0.0339617,VALID,20.3667,VALID,98,VALID,0,
2007-11-26, 01:50:00,VALID,918.63,VALID,0,VALID,100,VALID,0.0169808,VALID,20.3602,VALID,98,VALID,0,
2007-11-26, 01:51:00,VALID,918.624,VALID,0,VALID,100,VALID,0.0169808,VALID,20.3635,VALID,128,VALID,0.324963,
2007-11-26, 01:52:00,VALID,918.623,VALID,0,VALID,100,VALID,0.0849042,VALID,20.353,VALID,143,VALID,0.138247,
2007-11-26, 01:53:00,VALID,918.606,VALID,0,VALID,100,VALID,0.0509425,VALID,20.3662,VALID,138,VALID,0,
2007-11-26, 01:54:00,VALID,918.587,VALID,0,VALID,100,VALID,0.0849042,VALID,20.3695,VALID,129,VALID,0,
2007-11-26, 01:55:00,VALID,918.567,VALID,0,VALID,100,VALID,0.0339617,VALID,20.3473,VALID,122,VALID,0,
2007-11-26, 01:56:00,VALID,918.546,VALID,0,VALID,100,VALID,0.0339617,VALID,20.3308,VALID,122,VALID,0,
2007-11-26, 01:57:00,VALID,918.527,VALID,0,VALID,100,VALID,-0.0509425,VALID,20.3026,VALID,117,VALID,0.229421,
2007-11-26, 01:58:00,VALID,918.514,VALID,0,VALID,100,VALID,-0.0509425,VALID,20.3226,VALID,96,VALID,0.0406605,
2007-11-26, 01:59:00,VALID,918.488,VALID,0,VALID,100,VALID,-0.0339617,VALID,20.2993,VALID,89,VALID,0,
2007-11-26, 02:00:00,VALID,918.479,VALID,0,VALID,100,VALID,-0.0679233,VALID,20.2801,VALID,86,VALID,0.015625,
2007-11-26, 02:01:00,VALID,918.461,VALID,0,VALID,100,VALID,-0.0169808,VALID,20.2834,VALID,87,VALID,0.432227,
2007-11-26, 02:02:00,VALID,918.465,VALID,0,VALID,100,VALID,-0.0849042,VALID,20.3161,VALID,91,VALID,0.333079,
2007-11-26, 02:03:00,VALID,918.456,VALID,0,VALID,100,VALID,-0.0849042,VALID,20.3361,VALID,65,VALID,0.410065,
2007-11-26, 02:04:00,VALID,918.453,VALID,0,VALID,100,VALID,-0.101885,VALID,20.3293,VALID,89,VALID,0.948475,
2007-11-26, 02:05:00,VALID,918.444,VALID,0,VALID,100,VALID,-0.0339617,VALID,20.342,VALID,99,VALID,0.761979,
2007-11-26, 02:06:00,VALID,918.449,VALID,0,VALID,100,VALID,-0.0169808,VALID,20.3191,VALID,88,VALID,0.110119,
2007-11-26, 02:07:00,VALID,918.439,VALID,0,VALID,100,VALID,-0.0849042,VALID,20.3328,VALID,81,VALID,0.0496528,
2007-11-26, 02:08:00,VALID,918.435,VALID,0,VALID,100,VALID,-0.0849042,VALID,20.3096,VALID,76,VALID,1.07244,
2007-11-26, 02:09:00,VALID,918.424,VALID,0,VALID,100,VALID,-0.0509425,VALID,20.2804,VALID,74,VALID,1.09141,
2007-11-26, 02:10:00,VALID,918.408,VALID,0,VALID,100,VALID,-0.0339617,VALID,20.2869,VALID,80,VALID,1.14258,
2007-11-26, 02:11:00,VALID,918.39,VALID,0,VALID,100,VALID,-0.0509425,VALID,20.2674,VALID,74,VALID,1.11641,
2007-11-26, 02:12:00,VALID,918.372,VALID,0,VALID,100,VALID,0,VALID,20.208,VALID,81,VALID,1.46303,
2007-11-26, 02:13:00,VALID,918.36,VALID,0,VALID,100,VALID,0.0169808,VALID,20.192,VALID,82,VALID,1.0266,
2007-11-26, 02:14:00,VALID,918.362,VALID,0,VALID,100,VALID,0.0339617,VALID,20.2207,VALID,72,VALID,0.65997,
2007-11-26, 02:15:00,VALID,918.345,VALID,0,VALID,100,VALID,0.0169808,VALID,20.2369,VALID,75,VALID,0.957031,
2007-11-26, 02:16:00,VALID,918.335,VALID,0,VALID,100,VALID,-0.0169808,VALID,20.221,VALID,76,VALID,1.10137,
2007-11-26, 02:17:00,VALID,918.322,VALID,0,VALID,100,VALID,0.0169808,VALID,20.2274,VALID,77,VALID,1.17951,
2007-11-26, 02:18:00,VALID,918.297,VALID,0,VALID,100,VALID,0.0169808,VALID,20.2145,VALID,79,VALID,0.930575,
2007-11-26, 02:19:00,VALID,918.273,VALID,0,VALID,100,VALID,0,VALID,20.208,VALID,70,VALID,0.974077,
2007-11-26, 02:20:00,VALID,918.235,VALID,0,VALID,100,VALID,0.0169808,VALID,20.1847,VALID,77,VALID,1.25,
2007-11-26, 02:21:00,VALID,918.218,VALID,0,VALID,100,VALID,0,VALID,20.1915,VALID,81,VALID,0.898438,
2007-11-26, 02:22:00,VALID,918.193,VALID,0,VALID,100,VALID,0,VALID,20.1753,VALID,71,VALID,1.37192,
2007-11-26, 02:23:00,VALID,918.18,VALID,0,VALID,100,VALID,-0.0169808,VALID,20.1658,VALID,76,VALID,1.52126,
2007-11-26, 02:24:00,VALID,918.165,VALID,0,VALID,100,VALID,0,VALID,20.1725,VALID,83,VALID,1.46621,
2007-11-26, 02:25:00,VALID,918.169,VALID,0,VALID,100,VALID,0,VALID,20.1723,VALID,78,VALID,1.26042,
2007-11-26, 02:26:00,VALID,918.157,VALID,0,VALID,100,VALID,-0.0169808,VALID,20.159,VALID,79,VALID,1.4494,
2007-11-26, 02:27:00,VALID,918.143,VALID,0,VALID,100,VALID,-0.101885,VALID,20.1648,VALID,76,VALID,1.38212,
2007-11-26, 02:28:00,VALID,918.133,VALID,0,VALID,100,VALID,-0.101885,VALID,20.1486,VALID,79,VALID,1.22284,
2007-11-26, 02:29:00,VALID,918.127,VALID,0,VALID,100,VALID,-0.101885,VALID,20.1481,VALID,69,VALID,1.22986,
2007-11-26, 02:30:00,VALID,918.129,VALID,0,VALID,100,VALID,-0.0849042,VALID,20.1289,VALID,65,VALID,0.877907,
2007-11-26, 02:31:00,VALID,918.126,VALID,0,VALID,100,VALID,-0.135847,VALID,20.0835,VALID,46,VALID,0.865451,
2007-11-26, 02:32:00,VALID,918.134,VALID,0,VALID,100,VALID,-0.118866,VALID,20.0542,VALID,79,VALID,0.841025,
2007-11-26, 02:33:00,VALID,918.138,VALID,0,VALID,100,VALID,-0.101885,VALID,20.0572,VALID,77,VALID,0.910442,
2007-11-26, 02:34:00,VALID,918.136,VALID,0,VALID,100,VALID,-0.118866,VALID,20.0902,VALID,68,VALID,0.875586,
2007-11-26, 02:35:00,VALID,918.131,VALID,0,VALID,100,VALID,-0.152827,VALID,20.0802,VALID,72,VALID,0.846058,
2007-11-26, 02:36:00,VALID,918.12,VALID,0,VALID,100,VALID,-0.118866,VALID,20.0867,VALID,76,VALID,0.596058,
2007-11-26, 02:37:00,VALID,918.093,VALID,0,VALID,100,VALID,-0.101885,VALID,20.076,VALID,75,VALID,0.851888,
2007-11-26, 02:38:00,VALID,918.066,VALID,0,VALID,100,VALID,-0.118866,VALID,20.0572,VALID,69,VALID,1.08705,
2007-11-26, 02:39:00,VALID,918.047,VALID,0,VALID,100,VALID,-0.169808,VALID,20.028,VALID,69,VALID,1.05913,
2007-11-26, 02:40:00,VALID,918.048,VALID,0,VALID,100,VALID,-0.152827,VALID,20.0478,VALID,72,VALID,0.517228,
2007-11-26, 02:41:00,VALID,918.043,VALID,0,VALID,100,VALID,-0.118866,VALID,20.0445,VALID,66,VALID,0.336806,
2007-11-26, 02:42:00,VALID,918.063,VALID,0,VALID,100,VALID,-0.0169808,VALID,20.033,VALID,66,VALID,0.492188,
2007-11-26, 02:43:00,VALID,918.075,VALID,0,VALID,100,VALID,-0.0339617,VALID,20.0527,VALID,68,VALID,0.634266,
2007-11-26, 02:44:00,VALID,918.103,VALID,0,VALID,100,VALID,0,VALID,20.0757,VALID,75,VALID,0.642027,
2007-11-26, 02:45:00,VALID,918.123,VALID,0,VALID,100,VALID,0,VALID,20.0754,VALID,76,VALID,0.552455,
2007-11-26, 02:46:00,VALID,918.144,VALID,0,VALID,100,VALID,0.0169808,VALID,20.0914,VALID,78,VALID,0.777344,
2007-11-26, 02:47:00,VALID,918.147,VALID,0,VALID,100,VALID,0.0339617,VALID,20.0847,VALID,85,VALID,0.963246,
2007-11-26, 02:48:00,VALID,918.15,VALID,0,VALID,100,VALID,0.0169808,VALID,20.0712,VALID,85,VALID,0.976944,
2007-11-26, 02:49:00,VALID,918.137,VALID,0,VALID,100,VALID,0,VALID,20.0749,VALID,78,VALID,0.986607,
2007-11-26, 02:50:00,VALID,918.134,VALID,0,VALID,100,VALID,0,VALID,20.055,VALID,81,VALID,0.9641,
2007-11-26, 02:51:00,VALID,918.143,VALID,0,VALID,100,VALID,0,VALID,20.0492,VALID,81,VALID,0.831032,
2007-11-26, 02:52:00,VALID,918.13,VALID,0,VALID,100,VALID,0,VALID,20.0392,VALID,76,VALID,0.544271,
2007-11-26, 02:53:00,VALID,918.13,VALID,0,VALID,100,VALID,0,VALID,20.03,VALID,76,VALID,0.470313,
2007-11-26, 02:54:00,VALID,918.129,VALID,0,VALID,100,VALID,0,VALID,19.9941,VALID,73,VALID,0.454268,
2007-11-26, 02:55:00,VALID,918.126,VALID,0,VALID,100,VALID,-0.0509425,VALID,19.9686,VALID,68,VALID,0.329578,
2007-11-26, 02:56:00,VALID,918.12,VALID,0,VALID,100,VALID,-0.0679233,VALID,19.9486,VALID,57,VALID,0.0587713,
2007-11-26, 02:57:00,VALID,918.119,VALID,0,VALID,100,VALID,0,VALID,19.9514,VALID,57,VALID,0,
2007-11-26, 02:58:00,VALID,918.097,VALID,0,VALID,100,VALID,-0.0169808,VALID,19.9514,VALID,57,VALID,0.00104167,
2007-11-26, 02:59:00,VALID,918.078,VALID,0,VALID,100,VALID,-0.0169808,VALID,19.9644,VALID,58,VALID,0.00228659,
2007-11-26, 03:00:00,VALID,918.066,VALID,0,VALID,100,VALID,0.0169808,VALID,19.9901,VALID,61,VALID,0,
2007-11-26, 03:01:00,VALID,918.051,VALID,0,VALID,100,VALID,0,VALID,20.0165,VALID,61,VALID,0,
2007-11-26, 03:02:00,VALID,918.023,VALID,0,VALID,100,VALID,0,VALID,20.0295,VALID,61,VALID,0.241629,
2007-11-26, 03:03:00,VALID,918.015,VALID,0,VALID,100,VALID,0,VALID,20.0195,VALID,61,VALID,0.393682,
2007-11-26, 03:04:00,VALID,918.009,VALID,0,VALID,100,VALID,0,VALID,20.0357,VALID,61,VALID,0.283854,
2007-11-26, 03:05:00,VALID,918.01,VALID,0,VALID,100,VALID,0.0169808,VALID,20.0352,VALID,61,VALID,0.0132813,
2007-11-26, 03:06:00,VALID,918.014,VALID,0,VALID,100,VALID,0.0169808,VALID,20.0387,VALID,61,VALID,0,
2007-11-26, 03:07:00,VALID,918.022,VALID,0,VALID,100,VALID,0.0169808,VALID,20.0317,VALID,61,VALID,0,
2007-11-26, 03:08:00,VALID,918.023,VALID,0,VALID,100,VALID,0,VALID,20.0287,VALID,61,VALID,0,
2007-11-26, 03:09:00,VALID,918.026,VALID,0,VALID,100,VALID,0.0339617,VALID,20.0255,VALID,61,VALID,0,
2007-11-26, 03:10:00,VALID,918.021,VALID,0,VALID,100,VALID,0.0169808,VALID,20.0285,VALID,61,VALID,0,
2007-11-26, 03:11:00,VALID,918.002,VALID,0,VALID,100,VALID,0.0169808,VALID,20.0258,VALID,64,VALID,0,
2007-11-26, 03:12:00,VALID,918.014,VALID,0,VALID,100,VALID,-0.0509425,VALID,20.0368,VALID,79,VALID,0.671875,
2007-11-26, 03:13:00,VALID,918.02,VALID,0,VALID,100,VALID,-0.0679233,VALID,20.0462,VALID,74,VALID,0.798047,
2007-11-26, 03:14:00,VALID,918.025,VALID,0,VALID,100,VALID,-0.0849042,VALID,20.0335,VALID,73,VALID,0.772693,
2007-11-26, 03:15:00,VALID,918.03,VALID,0,VALID,100,VALID,-0.0849042,VALID,20.0235,VALID,73,VALID,0.665737,
2007-11-26, 03:16:00,VALID,918.031,VALID,0,VALID,100,VALID,-0.0679233,VALID,20.0238,VALID,72,VALID,0.122638,
2007-11-26, 03:17:00,VALID,918.032,VALID,0,VALID,100,VALID,-0.101885,VALID,19.9816,VALID,70,VALID,0.872396,
2007-11-26, 03:18:00,VALID,918.01,VALID,0,VALID,100,VALID,-0.0509425,VALID,19.9359,VALID,64,VALID,0.884201,
2007-11-26, 03:19:00,VALID,918.01,VALID,0,VALID,100,VALID,-0.0849042,VALID,19.9329,VALID,62,VALID,1.04173,
2007-11-26, 03:20:00,VALID,918.006,VALID,0,VALID,100,VALID,-0.0849042,VALID,19.9297,VALID,73,VALID,0.921503,
2007-11-26, 03:21:00,VALID,917.991,VALID,0,VALID,100,VALID,-0.0849042,VALID,19.9232,VALID,71,VALID,0.93941,
2007-11-26, 03:22:00,VALID,918.001,VALID,0,VALID,100,VALID,-0.0849042,VALID,19.9234,VALID,70,VALID,0.291385,
2007-11-26, 03:23:00,VALID,917.972,VALID,0,VALID,100,VALID,-0.0679233,VALID,19.9459,VALID,70,VALID,0,
2007-11-26, 03:24:00,VALID,917.952,VALID,0,VALID,100,VALID,-0.0679233,VALID,19.9524,VALID,70,VALID,0,
2007-11-26, 03:25:00,VALID,917.935,VALID,0,VALID,100,VALID,-0.0849042,VALID,19.9427,VALID,67,VALID,0.0764898,
2007-11-26, 03:26:00,VALID,917.914,VALID,0,VALID,100,VALID,-0.101885,VALID,19.9102,VALID,47,VALID,0.184642,
2007-11-26, 03:27:00,VALID,917.903,VALID,0,VALID,100,VALID,0.0169808,VALID,19.9184,VALID,43,VALID,0,
2007-11-26, 03:28:00,VALID,917.889,VALID,0,VALID,100,VALID,0.0339617,VALID,19.9314,VALID,54,VALID,0.21596,
2007-11-26, 03:29:00,VALID,917.877,VALID,0,VALID,100,VALID,-0.0169808,VALID,19.9087,VALID,67,VALID,0.643092,
2007-11-26, 03:30:00,VALID,917.866,VALID,0,VALID,100,VALID,0.0339617,VALID,19.9055,VALID,62,VALID,0.193892,
2007-11-26, 03:31:00,VALID,917.87,VALID,0,VALID,100,VALID,0.0169808,VALID,19.9149,VALID,62,VALID,0,
2007-11-26, 03:32:00,VALID,917.877,VALID,0,VALID,100,VALID,0,VALID,19.8922,VALID,62,VALID,0,
2007-11-26, 03:33:00,VALID,917.869,VALID,0,VALID,100,VALID,0.0169808,VALID,19.8925,VALID,62,VALID,0,
2007-11-26, 03:34:00,VALID,917.854,VALID,0,VALID,100,VALID,0.0169808,VALID,19.9022,VALID,62,VALID,0.308061,
2007-11-26, 03:35:00,VALID,917.84,VALID,0,VALID,100,VALID,0,VALID,19.896,VALID,74,VALID,0.8875,
2007-11-26, 03:36:00,VALID,917.824,VALID,0,VALID,100,VALID,0.0509425,VALID,19.8927,VALID,60,VALID,0.952925,
2007-11-26, 03:37:00,VALID,917.818,VALID,0,VALID,100,VALID,0.0339617,VALID,19.9217,VALID,50,VALID,0.639717,
2007-11-26, 03:38:00,VALID,917.815,VALID,0,VALID,100,VALID,0.0169808,VALID,19.9509,VALID,50,VALID,0.194196,
2007-11-26, 03:39:00,VALID,917.806,VALID,0,VALID,100,VALID,0,VALID,19.9441,VALID,50,VALID,0.0562855,
2007-11-26, 03:40:00,VALID,917.808,VALID,0,VALID,100,VALID,0.0169808,VALID,19.9471,VALID,53,VALID,0.467383,
2007-11-26, 03:41:00,VALID,917.813,VALID,0,VALID,100,VALID,0.0169808,VALID,19.9703,VALID,61,VALID,0.537246,